TimeEDT,TemperatureF,Dew PointF,Humidity,Sea Level PressureIn,VisibilityMPH,Wind Direction,Wind SpeedMPH,Gust SpeedMPH,PrecipitationIn,Events,Conditions,WindDirDegrees,DateUTC
12:45 AM,66.2,57.2,73,30.23,10.0,West,5.8,-,N/A,,Mostly Cloudy,270,2013-08-26 04:45:00
1:45 AM,64.4,57.2,77,30.24,10.0,WNW,6.9,-,N/A,,Mostly Cloudy,290,2013-08-26 05:45:00
2:45 AM,66.2,57.2,73,30.20,10.0,West,9.2,-,N/A,,Mostly Cloudy,260,2013-08-26 06:45:00
3:45 AM,66.2,57.2,73,30.18,10.0,West,9.2,-,N/A,,Mostly Cloudy,260,2013-08-26 07:45:00
5:45 AM,64.4,57.2,77,30.19,10.0,West,5.8,-,N/A,,Mostly Cloudy,270,2013-08-26 09:45:00
6:45 AM,64.4,57.2,77,30.18,10.0,West,5.8,-,N/A,,Mostly Cloudy,280,2013-08-26 10:45:00
7:50 AM,64.4,59.0,83,30.17,10.0,West,5.8,-,N/A,,Mostly Cloudy,280,2013-08-26 11:50:00
8:50 AM,64.4,59.0,83,30.16,10.0,West,5.8,-,N/A,,Mostly Cloudy,280,2013-08-26 12:50:00
10:45 AM,69.8,60.8,73,30.13,15.0,WSW,9.2,17.3,N/A,,Overcast,250,2013-08-26 14:45:00
11:45 AM,68.0,62.6,83,30.10,10.0,WSW,6.9,-,N/A,,Overcast,250,2013-08-26 15:45:00
12:45 PM,69.8,64.4,83,30.09,10.0,WSW,6.9,-,N/A,,Overcast,250,2013-08-26 16:45:00
1:45 PM,69.8,64.4,83,30.06,10.0,SW,5.8,-,N/A,,Overcast,220,2013-08-26 17:45:00
2:45 PM,77.0,68.0,74,30.02,10.0,SW,11.5,-,N/A,,Scattered Clouds,220,2013-08-26 18:45:00
4:45 PM,75.2,68.0,78,29.99,6.0,WSW,5.8,-,N/A,,Overcast,240,2013-08-26 20:45:00
5:50 PM,73.4,68.0,83,29.98,15.0,WSW,6.9,-,N/A,,Mostly Cloudy,250,2013-08-26 21:50:00
6:50 PM,73.4,68.0,83,29.98,10.0,WSW,6.9,-,N/A,,Mostly Cloudy,250,2013-08-26 22:50:00
7:50 PM,73.4,68.0,83,29.97,7.0,WSW,6.9,-,N/A,Rain,Light Rain Showers,250,2013-08-26 23:50:00
8:50 PM,69.8,68.0,94,29.99,3.0,West,13.8,23.0,N/A,Rain-Thunderstorm,Light Rain,280,2013-08-27 00:50:00
9:50 PM,69.8,68.0,94,29.98,5.0,West,6.9,-,N/A,Rain,Light Rain,260,2013-08-27 01:50:00
10:45 PM,69.8,68.0,94,29.95,4.0,West,6.9,-,N/A,Rain,Light Rain,260,2013-08-27 02:45:00
11:45 PM,68.0,68.0,100,29.93,2.0,Calm,Calm,-,N/A,Rain,Rain,0,2013-08-27 03:45:00